Location: Burgberg
(50.1428°N, 11.0671°E)
Time: 05:41:43
(UTC+00:00)

STARLINK-1027 - Pass Details

Date: 26 January 2020
Orbit: 568 x 571 km, 53.0° (Epoch: 23 February)

Event Time Altitude Azimuth Distance (km) Brightness Sun altitude
Exits shadow 04:34:40 44° 188° (S) 786 4.3 -22.8°
Drops below altitude 10° 04:39:37 10° 72° (ENE) 1,869 7.3 -22.0°
Enters shadow 05:37:26 -67° 251° (WSW) 12,379 10.4 -12.9°
Maximum altitude 06:15:28 65° 349° (NNW) 627 3.8 -7.1°
